Regional Weather Roundup
Issued by NWS Newport/Morehead, NC

Current Version | Previous Version | Text Only | Print | Product List | Glossary On
Versions: 1 2 3 4 5 6 7 8 9 10 11 12 13 14 15 16 17 18 19 20 21 22 23 24 25 26 27 28 29 30 31 32 33 34 35 36 37 38 39 40 41 42 43 44 45 46 47 48 49 50
000 ASUS42 KMHX 161322 RWRMHX WEATHER ROUNDUP FOR EASTERN NORTH CAROLINA NATIONAL WEATHER SERVICE NEWPORT/MOREHEAD CITY NC 900 AM EDT TUE SEP 16 2014 NOTE: "FAIR" INDICATES FEW OR NO CLOUDS BELOW 12,000 FEET WITH NO SIGNIFICANT WEATHER AND/OR OBSTRUCTIONS TO VISIBILITY NCZ015>017-031-032-045>047-102-103-161400- NORTH COAST CITY SKY/WX TMP DP RH WIND PRES REMARKS EDENTON CLOUDY 73 68 83 W5 30.04F ELIZABETH CITY SUNNY 73 67 81 SW8 30.04F KITTY HAWK SUNNY 74 67 77 W3 30.03F MANTEO MOSUNNY 73 67 80 SW6 30.05S $$ NCZ045>047-081-094-103-104-161400- CENTRAL COAST CITY SKY/WX TMP DP RH WIND PRES REMARKS FRISCO PTSUNNY 74 69 85 W3 30.05F SWANQUARTER N/A 75 N/A N/A W5 30.03R $$ NCZ095-097-098-100-101-161400- SOUTHERN COAST CITY SKY/WX TMP DP RH WIND PRES REMARKS BEAUFORT PTSUNNY 74 69 85 NE3 30.05S CEDAR ISLAND N/A 75 N/A N/A W2 30.09S JACKSONVILLE CLOUDY 71 71 100 CALM 30.05S NEWPORT NOT AVBL PINEY ISLAND PTSUNNY 77 68 73 NW5 30.05S WILMINGTON PTSUNNY 75 72 90 NW5 30.05R $$ NCZ011>013-027>030-043-044-078>080-089-090>093-098-161400- COASTAL PLAIN CITY SKY/WX TMP DP RH WIND PRES REMARKS AHOSKIE MOSUNNY 71 67 87 CALM 30.05S CLINTON CLOUDY 71 71 99 CALM 30.06S FOG ELIZABETHTOWN CLOUDY 72 71 96 CALM 30.06S GOLDSBORO CLOUDY 72 72 100 CALM 30.04S GREENVILLE PTSUNNY 72 68 88 W5 30.07S HAVELOCK PTSUNNY 76 69 79 CALM 30.06S KENANSVILLE CLOUDY 72 70 91 W3 30.06S KINSTON MOSUNNY 72 70 94 CALM 30.06S NEW BERN CLOUDY 75 67 76 CALM 30.06S RICHLANDS CLOUDY 72 66 83 CALM 30.05F ROANOKE RAPIDS NOT AVBL ROCKY MOUNT MOSUNNY 73 68 84 VRB5 30.05F WASHINGTON MOSUNNY 72 67 85 CALM 30.06S WHITEVILLE CLOUDY 74 71 90 CALM 30.05S $$ AMZ130-135-150-152-154-156-158-170-250-252-270-ANZ085-086-088-633-658-670-161400- MARINE OBSERVATIONS STATION/POSITION TIME TEMP WIND PRES WAVE SWELL AIR SEA DIR/SP/G HT/PER HT/PER (UTC) (F) (DEG/KT/KT) (MB) (FT/S) (FT/S) CHESAPEAKE LIGHT 1300 71 250/ 16/ 17 1017.2 BUOY 44014 1300 74 78 260/ 10/ 14 1016.6 2/ 8 2/ 8 DUCK 1300 74 250/ 7/ 10 N/A 2E DUCK 1300 N/A 2/ 7 OREGON INLET 1300 73 230/ 6/ 7 N/A BUOY 44095 1300 76 N/A 2/ 8 20E OREGON INLET NOT AVBL HATTERAS CG 1300 76 280/ 4/ 6 N/A DIAMOND BUOY 1300 76 300/ 8/ 10 1017.4 2/ 7 2/ 7 CAPE LOOKOUT 1300 76 60/ 6/ 7 1017.3 BEAUFORT LAB 1300 73 40/ 4/ 5 N/A 30 SE NEW RIVER 1300 73 80 190/ 10/ 14 1017.6 2/ 8 2/ 8 5 SE WRIGHTSVILL 1300 73 81 330/ 8/ 10 N/A BUOY 41002 1217 80 83 300/ 6/ 8 1018.3 3/ 7 3/ 7 BUOY 41004 1300 80 83 340/ 6/ 6 1017.1 2/ 7 2/ 7 $$

USA.gov is the U.S. government's official web portal to all federal, state and local government web resources and services.